FW1463 Weather Reports


time (UTC)temp
C
wind
direction
speed
KPH
gust
KPH
rain 1hr
cm
rain 24hr
cm
rain mn
cm
humidity
%
barometer
mb
20260503053729 23 277 1.6 9.7 0.00 0.48 0.03 87 1014.4
20260503052829 23 274 1.6 6.4 0.00 0.48 0.03 87 1014.6
20260503051929 23 273 3.2 8.0 0.00 0.48 0.03 87 1014.5
20260503051029 23 270 3.2 8.0 0.03 0.48 0.03 87 1014.6
20260503050129 23 266 3.2 11.3 0.03 0.48 0.03 88 1014.8
20260503045229 23 269 1.6 8.0 0.03 0.48 0.03 88 1014.7
20260503044329 22 272 3.2 11.3 0.03 0.48 0.03 89 1014.7
20260503043429 22 267 1.6 8.0 0.03 0.48 0.03 92 1014.9
20260503041629 22 252 1.6 4.8 0.03 0.48 0.03 95 1015.0
20260503040729 22 0 0.0 4.8 0.00 0.46 0.00 95 1015.0
20260503035829 21 0 0.0 4.8 0.00 0.46 0.46 95 1015.2
20260503034929 21 0 0.0 4.8 0.00 0.46 0.46 95 1015.2
20260503034029 21 0 0.0 3.2 0.00 0.46 0.46 95 1015.1
20260503033129 21 0 0.0 3.2 0.00 0.46 0.46 95 1014.5
20260503031329 21 0 0.0 3.2 0.03 0.46 0.46 94 1013.9
20260503030429 21 0 0.0 9.7 0.03 0.46 0.46 95 1013.9
20260503024629 21 166 1.6 6.4 0.03 0.46 0.46 95 1013.4
20260503023729 22 157 3.2 8.0 0.03 0.46 0.46 95 1012.9
20260503022829 22 142 1.6 6.4 0.03 0.46 0.46 95 1013.2
20260503021929 22 0 0.0 0.0 0.08 0.43 0.43 95 1013.6
20260503021029 22 0 0.0 6.4 0.10 0.43 0.43 95 1013.8
20260503020129 22 210 1.6 11.3 0.10 0.43 0.43 95 1014.0
20260503015229 22 199 1.6 8.0 0.10 0.43 0.43 95 1013.9
20260503014329 22 200 1.6 8.0 0.10 0.43 0.43 95 1013.5
20260503013429 22 181 1.6 4.8 0.10 0.43 0.43 95 1013.2
20260503012529 22 0 0.0 4.8 0.10 0.43 0.43 95 1013.6
20260503011629 22 177 1.6 8.0 0.03 0.36 0.36 95 1013.4
20260503004029 22 0 0.0 1.6 0.00 0.33 0.33 94 1013.3
20260503003129 22 0 0.0 1.6 0.03 0.33 0.33 93 1013.2
20260503002229 22 0 0.0 3.2 0.03 0.33 0.33 93 1013.2
20260503001329 22 0 0.0 4.8 0.03 0.33 0.33 92 1013.0
20260503000430 22 0 0.0 3.2 0.03 0.33 0.33 91 1012.9
20260502235529 22 338 1.6 4.8 0.03 0.33 0.33 91 1013.2
20260502234629 22 348 3.2 8.0 0.03 0.33 0.33 90 1012.9
20260502232829 23 329 4.8 8.0 0.00 0.30 0.30 93 1013.2
20260502231929 23 323 3.2 8.0 0.05 0.30 0.30 93 1013.3
20260502231029 23 324 4.8 9.7 0.30 0.30 0.30 93 1013.3
20260502225229 23 319 4.8 9.7 0.30 0.30 0.30 93 1012.9
20260502224329 23 316 6.4 11.3 0.30 0.30 0.30 92 1013.0
20260502223429 23 316 6.4 16.1 0.30 0.30 0.30 92 1012.8
20260502221629 24 310 9.7 22.5 0.10 0.10 0.13 84 1012.6
20260502220729 27 244 4.8 16.1 0.00 0.00 0.00 82 1011.8
20260502215829 27 243 3.2 11.3 0.00 0.00 0.00 81 1011.5
20260502214929 27 258 3.2 11.3 0.00 0.00 0.00 81 1011.7
20260502214029 27 262 3.2 16.1 0.00 0.00 0.00 80 1011.8
20260502213129 28 268 4.8 16.1 0.00 0.00 0.00 78 1011.8
20260502212229 28 262 3.2 11.3 0.00 0.00 0.00 77 1011.8
20260502211329 28 250 3.2 9.7 0.00 0.00 0.00 76 1011.7
20260502210429 28 263 3.2 11.3 0.00 0.00 0.00 75 1011.5
20260502205529 28 254 3.2 9.7 0.00 0.00 0.00 74 1011.5
20260502204629 29 270 4.8 16.1 0.00 0.00 0.00 73 1011.4
20260502203729 30 267 4.8 19.3 0.00 0.00 0.00 69 1011.5
20260502202829 31 263 4.8 16.1 0.00 0.00 0.00 69 1011.5
20260502201929 31 269 4.8 14.5 0.00 0.00 0.00 69 1011.5
20260502201029 31 256 4.8 12.9 0.00 0.00 0.00 70 1011.6
20260502200129 30 270 6.4 16.1 0.00 0.00 0.00 70 1011.7
20260502195229 30 275 8.0 19.3 0.00 0.00 0.00 71 1011.7
20260502194329 31 266 4.8 14.5 0.00 0.00 0.00 71 1011.7
20260502193429 30 270 6.4 16.1 0.00 0.00 0.00 68 1011.7
20260502192529 31 260 6.4 16.1 0.00 0.00 0.00 69 1011.9
20260502190729 31 258 4.8 14.5 0.00 0.00 0.00 70 1012.1
20260502185829 31 260 4.8 11.3 0.00 0.00 0.00 70 1012.2
20260502184929 31 236 6.4 20.9 0.00 0.00 0.00 70 1012.3
20260502184029 31 234 6.4 22.5 0.00 0.00 0.00 71 1012.3
20260502182229 31 265 6.4 19.3 0.00 0.00 0.00 73 1012.6
20260502181329 31 269 6.4 17.7 0.00 0.00 0.00 72 1012.7
20260502180429 31 266 6.4 24.1 0.00 0.00 0.00 71 1012.7
20260502170129 31 246 6.4 20.9 0.00 0.00 0.00 71 1012.8
20260502164329 31 245 6.4 19.3 0.00 0.00 0.00 69 1012.9
20260502163429 31 236 8.0 22.5 0.00 0.00 0.00 69 1012.9
20260502161629 31 234 8.0 19.3 0.00 0.00 0.00 71 1012.9
20260502160729 31 232 8.0 27.4 0.00 0.00 0.00 71 1012.8
20260502152229 30 231 8.0 27.4 0.00 0.00 0.00 70 1012.4
20260502151329 30 217 9.7 22.5 0.00 0.00 0.00 71 1012.4
20260502150429 30 213 8.0 24.1 0.00 0.00 0.00 70 1012.3
20260502130729 27 201 3.2 12.9 0.00 0.00 0.00 84 1011.8
20260502123129 24 184 1.6 6.4 0.00 0.00 0.00 92 1011.6
20260502122229 23 182 1.6 6.4 0.00 0.00 0.00 95 1011.5
20260502121329 23 0 0.0 3.2 0.00 0.00 0.00 96 1011.5
20260502120429 22 152 1.6 3.2 0.00 0.00 0.00 97 1011.5
20260502115529 22 0 0.0 4.8 0.00 0.00 0.00 97 1011.5
20260502114629 21 148 1.6 4.8 0.00 0.00 0.00 97 1011.4
20260502113729 21 150 1.6 6.4 0.00 0.00 0.00 97 1011.4
20260502112829 21 154 1.6 4.8 0.00 0.00 0.00 97 1011.4
20260502111929 21 156 1.6 6.4 0.00 0.00 0.00 97 1011.3
20260502111029 20 154 1.6 4.8 0.00 0.00 0.00 97 1011.4
20260502110129 20 0 0.0 1.6 0.00 0.00 0.00 97 1011.3
20260502105229 20 0 0.0 0.0 0.00 0.00 0.00 96 1011.3
20260502104329 19 0 0.0 0.0 0.00 0.00 0.00 96 1011.3
20260502103429 19 0 0.0 1.6 0.00 0.00 0.00 96 1011.3
20260502101629 18 0 0.0 0.0 0.00 0.00 0.00 95 1011.4
20260502100729 18 0 0.0 0.0 0.00 0.00 0.00 95 1011.5
20260502091329 19 0 0.0 1.6 0.00 0.00 0.00 95 1011.6
20260502070729 18 0 0.0 0.0 0.00 0.00 0.00 93 1011.5
20260502065829 18 0 0.0 0.0 0.00 0.00 0.00 93 1011.6
20260502064929 18 0 0.0 0.0 0.00 0.00 0.00 92 1011.8
20260502064029 18 0 0.0 0.0 0.00 0.00 0.00 92 1011.8
20260502063129 18 0 0.0 0.0 0.00 0.00 0.00 92 1011.8
20260502062229 18 0 0.0 0.0 0.00 0.00 0.00 92 1011.9
20260502061329 18 0 0.0 0.0 0.00 0.00 0.00 92 1012.1
20260502060429 18 0 0.0 0.0 0.00 0.00 0.00 91 1012.2
20260502055529 18 0 0.0 0.0 0.00 0.00 0.00 92 1012.2
20260502054629 18 0 0.0 0.0 0.00 0.00 0.00 92 1012.3